Regional Weather Roundup
Issued by NWS

Home | Current Version | Previous Version | Graphics & Text | Print | Product List | Glossary Off
Versions: 1 2 3 4 5 6 7 8 9 10 11 12 13 14 15 16 17 18 19 20 21 22 23 24 25 26 27 28 29 30 31 32 33 34 35 36 37 38 39 40 41 42 43 44 45 46 47 48 49 50

000
ASUS43 KDTX 311610
RWRMI
MICHIGAN HOURLY REGIONAL WEATHER ROUNDUP
NATIONAL WEATHER SERVICE DETROIT/PONTIAC MI
1200 PM EDT TUE MAY 31 2016

NOTE: "FAIR" INDICATES FEW OR NO CLOUDS BELOW 12,000 FEET WITH NO
SIGNIFICANT WEATHER AND/OR OBSTRUCTION TO VISIBILITY.

MIZ047>049-052>055-059>063-066>070-074>076-081>083-311700-
SOUTHEAST LOWER MICHIGAN

CITY           SKY/WX    TMP DP  RH WIND       PRES   REMARKS
ADRIAN         PTSUNNY   79  49  34 E7        30.05S
ALMA           SUNNY     75  50  41 E6        30.07S
ANN ARBOR      MOSUNNY   79  50  36 NE7       30.05S
BAD AXE        SUNNY     67  53  61 NE7       30.10S
CARO           SUNNY     75  54  47 E6        30.07S
DETROIT CITY   SUNNY     78  49  35 E9        30.05R
DETROIT        PTSUNNY   80  48  32 NE10      30.05S
FLINT          SUNNY     80  48  32 VRB5      30.06S
GROSSE ILE     MOSUNNY   81  43  26 N10       30.03S
HILLSDALE      PTSUNNY   77  34  20 E10       30.06S
HOWELL         MOSUNNY   78  45  30 NE5       30.06S

CITY           SKY/WX    TMP DP  RH WIND       PRES   REMARKS
JACKSON        CLOUDY    78  48  34 SE9       30.05F
LAMBERTVILLE   MOSUNNY   80  58  46 E7        30.04S
LANSING        SUNNY     78  52  40 VRB7      30.06S
LAPEER         FAIR      75  49  39 NE5       30.07S
MASON          SUNNY     78  48  34 E10G16    30.06S
MONROE         PTSUNNY   80  53  38 NE7       30.04S
MT. CLEMENS    PTSUNNY   78  52  39 E6        30.06S
PONTIAC        PTSUNNY   79  45  29 NE6       30.05S
PORT HOPE        N/A     58  54  86 N12       30.11R
PORT HURON     SUNNY     66  55  68 NE12      30.09R
TRI CITIES     SUNNY     75  54  47 E7        30.08R
MIDLAND        FAIR      73  54  50 NE3       30.07S
TROY           SUNNY     79  47  32 NE6       30.07S
SAGINAW HB     SUNNY     75  54  46 N7        30.06S
$$
MIZ043>046-050>051-056>058-064>065-071>073-077>080-311700-
SOUTHWEST LOWER MICHIGAN

CITY           SKY/WX    TMP DP  RH WIND       PRES   REMARKS
BATTLE CREEK   CLOUDY    78  47  33 E8        30.05S
BENTON HARBOR  CLOUDY    81  52  36 SE10      30.01F
BIG RAPIDS     SUNNY     74  55  50 E7        30.06S
COLDWATER      MOSUNNY   77  50  37 E6        30.04S
FREMONT        FAIR      76  51  42 SE6       30.04S
HOLLAND        SUNNY     80  48  32 E13       30.03F
GRAND RAPIDS   PTSUNNY   80  49  33 SE7       30.05S
IONIA          FAIR      76  47  35 E6        30.05S
KALAMAZOO      PTSUNNY   80  48  32 VRB6      30.04S
LUDINGTON      CLOUDY    72  56  57 SE6       30.04S
MARSHALL       CLOUDY    78  46  32 SE8       30.04F
MOUNT PLEASANT SUNNY     75  54  48 E7        30.06S
MUSKEGON       PTSUNNY   81  47  30 E12       30.03F
SOUTH HAVEN    MOSUNNY   80  47  31 E8        30.02F
$$
MIZ016>042-311700-
NORTHERN LOWER MICHIGAN

CITY           SKY/WX    TMP DP  RH WIND       PRES   REMARKS
ALPENA         SUNNY     62  48  60 N12       30.12R
BEAVER ISLAND  SUNNY     58  47  65 E15       30.10S
BELLAIRE       SUNNY     71  45  39 N3        30.08S
CADILLAC       SUNNY     73  52  48 CALM      30.07S
CHARLEVOIX     SUNNY     65  47  52 E8        30.10S
FRANKFORT      MOSUNNY   71  54  53 SE7       30.04F
GAYLORD        SUNNY     68  44  42 NE8       30.09R
GRAYLING       SUNNY     74  47  38 CALM      30.09R
HARBOR SPRINGS SUNNY     65  49  57 E10       30.09S
HOUGHTON LAKE  SUNNY     72  52  49 W5        30.08S
MANISTEE       PTSUNNY   75  54  46 E7        30.04F
OSCODA         SUNNY     63  49  61 NE12      30.10R
PELLSTON       SUNNY     64  47  53 E9        30.11S
ROGERS CITY    SUNNY     53  44  71 NE6       30.14R
TRAVERSE CITY  MOSUNNY   66  52  60 N6        30.06F
$$
MIZ007>008-015-311700-
EASTERN UPPER MICHIGAN

CITY           SKY/WX    TMP DP  RH WIND       PRES   REMARKS
KINROSS          N/A     61  45  55 E5        30.12R
MACKINAC ISLAN SUNNY     57  45  64 E3        30.12R
NEWBERRY       MOSUNNY   61  46  58 NE6       30.11S
S. S. MARIE    SUNNY     62  46  55 SW3       30.11R
MUNISING         N/A     52  45  77 NE9       30.12R
$$
MIZ004>006-011>014-085-311700-
CENTRAL UPPER MICHIGAN

CITY           SKY/WX    TMP DP  RH WIND       PRES   REMARKS
MANISTIQUE     MOSUNNY   64  46  52 NE6       30.10R
ESCANABA         N/A    N/A N/A N/A MISG        N/A
MENOMINEE      CLOUDY    55  46  71 E12       30.10S
SAWYER-GWINN   CLOUDY    54  43  66 N8        30.11R
$$
MIZ001>003-009>011-084-311700-
WESTERN UPPER MICHIGAN

CITY           SKY/WX    TMP DP  RH WIND       PRES   REMARKS
IRON MOUNTAIN  CLOUDY    60  44  55 E8        30.08S
HOUGHTON       CLOUDY    46  39  76 E16G25    30.11R
COPPER HARBOR    N/A     51  42  71 VRB7      30.11S
IRONWOOD       CLOUDY    61  48  63 SE8G16      N/A
$$

ABBREVIATIONS USED IN REMARKS
   TC - TEMPERATURE IN CELSIUS
  WCI - WIND CHILL INDEX
   HX - HEAT INDEX
  VSB - VISIBILITY





USA.gov is the U.S. government's official web portal to all federal, state and local government web resources and services.